Flag for Kenya Weather past 2 weeks in Nairobi, Kenya

Now
64 °F

Passing clouds.


Feels Like: 64 °F
Forecast: 60 / 76 °F
Wind: No wind

Location: Nairobi / Wilson

Current Time: May 28, 2015 at 3:48:44 AM

Latest Report: May 28, 2015 at 12:00 AM


Visibility: N/A

Pressure: 30.21 "Hg

Humidity: 94%

Dew point: 63 °F

Location of NairobiLocation

Historic Weather in Nairobi — Graph

°F

Nairobi temperature yesterday

Maximum temperature yesterday: 75 °F (at 3:00 PM)
Minimum temperature yesterday: 61 °F (at 12:00 AM)
Average temperature yesterday: 67 °F

Past Weeks' High & Low Weather Summary

 TemperatureHumidityPressure
High77 °F (May 13, 3:00 PM)100% (May 16, 4:00 AM)30.27 "Hg (May 16, 4:00 AM)
Low61 °F (May 22, 3:00 AM)50% (May 23, 4:00 PM)30.09 "Hg (May 13, 4:00 PM)
Average68 °F78%30.17 "Hg
* Reported May 13 8:00 AM — Midnight between May 27 and May 28, Nairobi, Weather by CustomWeather, © 2015

Note: Actual official high and low records may vary slightly from our data, if they occured in-between our weather recording intervals... More about our weather records

Advertising

Nairobi weather history for previous 24 hours

 ConditionsComfort  
Time TempWeatherWind HumidityBarometerVisibility
12:00 AM
Thu, May 28
64 °FPassing clouds.No wind94%30.21 "HgN/A
9:00 PM
Wed, May 27
68 °FPassing clouds.No wind83%30.15 "HgN/A
8:00 PM66 °FPassing clouds.No wind88%30.15 "HgN/A
7:00 PM66 °FPassing clouds.6 mph83%30.15 "HgN/A
6:00 PM72 °FPartly sunny.8 mph65%30.15 "HgN/A
5:00 PM75 °FPartly sunny.N/A57%30.15 "HgN/A
4:00 PM66 °FPartly sunny.No wind78%30.15 "HgN/A
3:00 PM75 °FPartly sunny.No wind54%30.12 "HgN/A
2:00 PM73 °FPartly sunny.3 mph57%30.15 "HgN/A
1:00 PM73 °FPartly sunny.7 mph61%30.18 "HgN/A
12:00 PM72 °FPartly sunny.No wind65%30.21 "HgN/A
11:00 AM70 °FPartly sunny.3 mph73%30.24 "HgN/A
10:00 AM66 °FPartly sunny.No wind83%30.24 "HgN/A
9:00 AM63 °FPartly sunny.5 mph94%30.27 "HgN/A
8:00 AM61 °FPartly sunny.No wind94%30.24 "HgN/A
7:00 AM61 °FPartly sunny.No wind94%30.21 "HgN/A
6:00 AM61 °FPassing clouds.No wind94%30.18 "HgN/A
5:00 AM61 °FPassing clouds.No wind88%30.15 "HgN/A
Weather by CustomWeather, © 2015

See weather overviewHow to use our weather pages